{"data":{"norad_id":54202,"intl_designator":"2022-141AX","name":"STARLINK-5205","alt_names":[],"object_type":"PAYLOAD","status":"ACTIVE","operator":null,"country":"US","launch_date":"2022-10-28","launch_site_code":"AFWTR","launch_vehicle":null,"mission":null,"orbit_class":"UNKNOWN","rcs_meters":null,"size_class":null,"mass_kg":null,"dimensions":null,"purposes":["comms"],"wikipedia_slug":null,"has_3d_model":false,"image_url":null,"decayed_at":null,"tle_current":{"epoch":"2026-05-25T00:10:14.348064Z","epoch_age_seconds":85162,"freshness":"FRESH","line1":"1 54202U 22141AX  26145.00711051  .00000689  00000+0  61352-4 0  9999","line2":"2 54202  53.2148  11.2036 0001377  87.5449 272.5701 15.08838069197522","mean_motion":15.08838069,"eccentricity":0.0001377,"inclination_deg":53.2148,"raan_deg":11.2036,"arg_perigee_deg":87.5449,"mean_anomaly_deg":272.5701,"bstar":6.1352e-5,"rev_number":19752,"period_min":95.437676818055,"perigee_km":538.79669832258,"apogee_km":540.7018842072,"semimajor_km":6917.8862912649,"source":"CELESTRAK","updated_at":"2026-05-25T13:38:17.685749Z"}}}